Location: Sternwarte ZA, Rosenfeld-Brittheim
(48.2889°N, 8.6789°E)
Time: 21:45:52
(UTC+02:00)

X-37B - Visible Passes

Search period start: 24 September 2021 00:00
Search period end: 04 October 2021 00:00
Orbit: 381 x 393 km, 45.0° (Epoch: 29 August)

Date Brightness Start Highest point End Pass type
(mag) Time Alt. Az. Time Alt. Az. Time Alt. Az.
24 Sep 3.1 05:03:52 14° SE 05:03:52 14° SE 05:05:13 10° ESE visible
24 Sep 1.6 06:36:31 10° WSW 06:39:29 37° SSE 06:42:27 10° E visible
25 Sep 1.9 05:40:29 26° S 05:41:13 29° SSE 05:44:02 10° E visible
26 Sep 3.4 04:44:46 14° ESE 04:44:46 14° ESE 04:45:30 10° ESE visible
26 Sep 1.3 06:17:04 17° WSW 06:19:14 44° S 06:22:17 10° E visible
27 Sep 1.7 05:21:20 36° SSE 05:21:20 36° SSE 05:23:54 10° E visible
28 Sep 1.1 05:57:54 31° SW 05:59:00 46° S 06:02:04 10° ESE visible
29 Sep 2.6 05:02:12 24° ESE 05:02:12 24° ESE 05:03:44 10° E visible
29 Sep 1.5 06:34:29 12° WSW 06:37:03 36° SSW 06:40:00 10° SE visible
30 Sep 1.1 05:38:49 43° S 05:38:49 43° S 05:41:48 10° ESE visible
01 Oct 3.7 04:43:12 12° ESE 04:43:12 12° ESE 04:43:31 10° ESE visible
01 Oct 1.8 06:15:30 21° WSW 06:16:47 28° SSW 06:19:32 10° SE visible
02 Oct 2.5 05:19:57 23° SE 05:19:57 23° SE 05:21:28 10° SE visible
02 Oct 2.8 06:52:58 10° WSW 06:54:37 13° SSW 06:56:15 10° S visible
03 Oct 2.3 05:56:49 19° SSW 05:56:49 19° SSW 05:58:51 10° SSE visible
